Location: Niagara
(43.2500°N, 79.0670°W)
Time: 08:13:03
(UTC-05:00)

Tiangong 2 - Pass Details

Date: 14 October 2017
Orbit: 386 x 390 km, 42.8° (Epoch: 14 December)

Event Time Altitude Azimuth Distance (km) Brightness Sun altitude
Exits shadow 04:59:17 17° 89° (E) 1,075 4.1 -27.8°
Drops below altitude 10° 05:00:10 10° 86° (E) 1,424 4.9 -27.7°
Sets 05:02:16 0° 83° (E) 2,282 6.2 -27.3°
